Terug naar catalogus

DONGPO 11

ActiefWetenschapSSO
NORAD 68206·PAYLOAD·🇨🇳 China
Deze satellietnaam is nog niet bevestigd door officiële bronnen.

Gelanceerd Mar 16, 2026 vanaf Jiuquan Satellite Launch Center

Loading…

Volgende Passages (komende 24 uur)

TLE

VersSource: Space-Track

Epoch: Sep 14, 2026, 11:39 UTC

1 68206U 26052J   26257.48550908  .00086841  28825-5  99115-3 0  9993
2 68206  97.3189 319.2834 0439829 129.4124 234.6911 14.94621556 26983

Volg DONGPO 11 in realtime met AllMySat

Download on the App Store